Location: Unspecified
(0.0000°N, 0.0000°E)
Time: 11:36:33
(UTC+02:00)

Resurs 01 Rocket - Visible Passes

Search period start: 21 April 2014 00:00
Search period end: 01 May 2014 00:00
Orbit: 636 x 647 km, 98.2° (Epoch: 20 April)

Date Brightness Start Highest point End Pass type
(mag) Time Alt. Az. Time Alt. Az. Time Alt. Az.
21 Apr 2.4 07:22:09 10° NNE 07:26:27 58° ESE 07:30:47 10° S visible
23 Apr 4.8 06:36:22 10° E 06:37:59 12° ESE 06:39:36 10° SE visible
23 Apr 4.5 20:22:59 10° SSW 20:26:13 20° WSW 20:29:28 10° NW visible
24 Apr 4.0 06:58:14 10° NE 07:01:51 25° ESE 07:05:28 10° SSE visible
25 Apr 2.4 07:21:25 10° NNE 07:25:43 55° ESE 07:30:02 10° S visible
27 Apr 4.8 06:35:51 10° E 06:37:14 11° ESE 06:38:38 10° ESE visible
27 Apr 4.4 20:22:09 10° SSW 20:25:28 21° WSW 20:28:47 10° NW visible
28 Apr 4.0 06:57:32 10° NE 07:01:05 24° ESE 07:04:40 10° SSE visible
29 Apr 2.5 07:20:40 10° NNE 07:24:57 53° ESE 07:29:15 10° S visible
